This demonstration page uses our WeatherBlox Daily Observations layout. Learn more.

Left ArrowRight Arrow

53.62937, 11.41316

Hourly Observations for April 15, 2015

Temp ( °F °C ) Dew Point ( °F °C ) Humidity (%) Winds ( mph kmh ) Pressure ( in mb ) Visibility ( mi km ) Precip ( " mm )
6:20 am 06:20 Mostly Sunny 48 9 45 7 87 87 SW 8 13 30.00 1016 7 11 N/A
6:50 am 06:50 Mostly Sunny 48 9 45 7 87 87 SW 7 11 30.00 1016 6 9 N/A
7:20 am 07:20 Mostly Sunny 48 9 45 7 87 87 SSW 8 13 30.00 1016 6 9 N/A
7:50 am 07:50 Mostly Sunny 48 9 45 7 87 87 SW 9 15 30.00 1016 6 9 N/A
8:20 am 08:20 Mostly Sunny 48 9 45 7 87 87 SW 10 17 30.00 1016 6 9 N/A
8:50 am 08:50 Mostly Sunny 52 11 46 8 82 82 SW 10 17 29.97 1015 7 11 N/A
9:20 am 09:20 Mostly Sunny 54 12 46 8 77 77 SW 14 22 29.97 1015 7 11 N/A
9:50 am 09:50 Mostly Sunny 55 13 46 8 72 72 SW 16 26 29.97 1015 7 11 N/A
10:20 am 10:20 Mostly Sunny 57 14 46 8 67 67 SW 16 26 29.97 1015 7 11 N/A
10:50 am 10:50 Mostly Sunny 59 15 45 7 59 59 SW 16 26 29.94 1014 7 11 N/A
11:20 am 11:20 Mostly Sunny 61 16 45 7 55 55 SW 16 26 29.94 1014 7 11 N/A
11:50 am 11:50 Mostly Sunny 63 17 45 7 52 52 SW 20 31 29.91 1013 7 11 N/A
12:20 pm 12:20 Mostly Sunny 64 18 45 7 49 49 SW 18 30 29.91 1013 7 11 N/A
12:50 pm 12:50 Mostly Sunny 66 19 43 6 43 43 WSW 21 33 29.88 1012 7 11 N/A
1:20 pm 13:20 Mostly Sunny 68 20 43 6 40 40 SW 21 33 29.88 1012 7 11 N/A
1:50 pm 13:50 Mostly Sunny 68 20 43 6 40 40 WSW 22 35 29.85 1011 7 11 N/A
2:20 pm 14:20 Mostly Sunny 72 22 39 4 31 31 WSW 24 39 29.85 1011 7 11 N/A
2:27 pm 14:27 Mostly Sunny 70 21 39 4 33 33 W 22 35 29.85 1011 7 11 N/A
2:50 pm 14:50 Mostly Sunny 70 21 37 3 31 31 W 23 37 29.85 1011 7 11 N/A
3:20 pm 15:20 Mostly Sunny 70 21 37 3 31 31 WSW 25 41 29.83 1010 7 11 N/A
3:50 pm 15:50 Mostly Sunny 70 21 39 4 33 33 W 25 41 29.83 1010 7 11 N/A
3:58 pm 15:58 Mostly Sunny 72 22 39 4 31 31 W 22 35 29.83 1010 7 11 N/A
4:20 pm 16:20 Mostly Sunny 72 22 41 5 33 33 W 25 41 29.83 1010 7 11 N/A
4:35 pm 16:35 Mostly Sunny 70 21 43 6 38 38 WSW 24 39 29.80 1009 7 11 N/A
4:50 pm 16:50 Mostly Sunny 72 22 43 6 36 36 W 22 35 29.80 1009 7 11 N/A
5:20 pm 17:20 Mostly Sunny 70 21 43 6 38 38 W 22 35 29.80 1009 7 11 N/A
5:32 pm 17:32 Mostly Sunny 70 21 43 6 38 38 W 20 31 29.80 1009 7 11 N/A
5:50 pm 17:50 Mostly Sunny 70 21 43 6 38 38 W 23 37 29.80 1009 7 11 N/A
6:20 pm 18:20 Mostly Sunny 68 20 41 5 38 38 W 25 41 29.80 1009 7 11 N/A
6:21 pm 18:21 Mostly Sunny 68 20 43 6 40 40 W 22 35 29.80 1009 7 11 N/A
6:50 pm 18:50 Mostly Sunny 68 20 41 5 38 38 W 20 31 29.80 1009 7 11 N/A
6:53 pm 18:53 Mostly Sunny 68 20 41 5 38 38 W 20 31 29.80 1009 7 11 N/A

Powered by AerisWeather